Total_Precipitation_Accumulation
2.84 3.13 2.99 3.01 2.73 2.84 3.16 3.47 3.48 3.66 3.93 3.89 3.43 3.17 3.27 3.26 3.01 2.85 3.04 3.29 3.35 3.29 3.55 3.72 3.44 3.25 3.17 2.84 2.57 2.47 2.31 2.14 1.92 1.70 1.57 1.44 1.28 1.07 0.88 0.81 0.70 0.66 0.61
3.08 3.28 3.12 3.04 2.75 2.74 3.04 3.35 3.41 3.74 3.86 3.98 3.48 3.13 3.13 3.13 2.87 2.63 2.70 3.21 3.29 3.15 3.29 3.69 3.83 3.70 3.51 3.22 2.93 2.68 2.45 2.24 2.04 1.79 1.55 1.39 1.29 1.19 1.14 0.97 0.84 0.78 0.70
3.28 3.48 3.40 3.04 2.82 2.89 3.07 3.06 3.21 3.71 3.61 3.59 3.48 3.36 3.28 3.11 2.85 2.77 2.70 2.88 2.78 2.89 3.15 3.33 3.61 3.86 3.92 3.82 3.63 3.26 2.94 2.51 2.15 1.79 1.48 1.32 1.25 1.18 1.16 1.10 1.02 0.97 0.86
2.90 3.22 2.99 2.60 2.69 2.87 3.07 3.11 3.08 3.46 3.62 3.66 3.74 3.57 3.39 3.19 2.82 2.72 2.69 2.66 2.65 2.39 2.68 3.01 3.38 3.70 4.11 4.39 4.48 4.34 3.91 3.17 2.50 2.03 1.66 1.50 1.40 1.24 1.10 1.08 1.11 1.10 0.97
2.05 2.41 2.39 2.33 2.35 2.63 2.71 2.41 2.65 2.99 3.22 3.36 3.14 3.08 2.75 2.57 2.48 2.32 2.28 2.18 2.38 2.52 2.66 2.68 3.03 3.33 3.98 4.83 5.38 5.33 4.85 4.00 3.16 2.62 2.27 2.03 1.84 1.56 1.28 1.13 1.14 1.12 1.02
1.88 2.14 2.21 2.05 2.01 2.24 2.34 2.48 2.80 2.89 2.78 2.85 2.48 2.49 2.46 2.23 2.23 2.18 2.00 2.00 2.13 2.09 2.31 2.56 2.90 2.73 3.28 4.20 4.97 5.25 5.13 4.69 3.86 3.18 2.83 2.66 2.54 2.14 1.64 1.40 1.32 1.22 1.13
2.04 2.33 2.16 2.20 2.04 2.09 2.16 2.23 2.49 2.60 2.39 2.54 2.90 2.72 2.39 2.12 2.10 2.01 1.92 2.00 2.00 2.06 2.23 2.62 2.90 2.98 2.89 2.94 3.40 4.17 4.81 5.07 4.83 4.12 3.47 3.06 2.94 2.54 1.97 1.74 1.54 1.42 1.39
2.02 1.95 2.15 1.99 1.93 2.17 2.14 2.22 2.45 2.44 2.20 2.35 2.80 3.01 2.75 2.65 2.17 1.59 1.80 1.90 1.94 2.19 2.24 2.24 2.50 2.98 3.02 3.21 2.61 2.97 4.11 4.84 5.32 5.28 4.57 3.77 3.36 2.90 2.38 2.17 1.93 1.74 1.65
1.69 1.77 1.82 1.77 1.89 1.79 2.00 2.17 2.29 2.50 2.49 2.25 2.24 2.69 2.70 2.65 2.40 1.84 1.57 1.66 1.95 2.24 2.18 2.19 2.23 2.56 2.86 3.27 3.14 2.67 2.96 3.56 4.59 5.54 5.57 4.69 3.67 2.99 2.69 2.59 2.49 2.25 2.03
1.68 1.68 1.67 1.80 1.83 1.70 2.00 1.75 1.93 2.30 2.51 2.30 2.28 2.19 2.23 2.40 2.47 2.30 1.94 1.62 1.77 1.92 2.06 2.03 2.16 2.48 2.75 3.01 3.08 2.50 2.16 2.44 3.37 4.59 5.41 5.37 4.56 3.60 3.08 3.09 3.28 3.11 2.73
1.70 1.51 1.63 1.84 1.89 1.76 1.80 1.82 2.06 2.09 2.18 2.20 2.18 2.13 2.25 2.32 2.15 2.22 2.22 2.02 1.86 1.57 1.70 1.98 2.19 2.35 2.53 2.80 3.08 2.72 2.52 2.34 2.43 2.97 3.69 4.39 4.74 4.38 3.92 3.85 4.14 4.31 4.09
1.64 1.52 1.65 1.94 1.95 1.92 1.87 1.85 1.89 1.94 2.13 2.25 2.19 2.07 2.16 2.27 2.27 2.37 2.16 2.08 2.10 1.80 1.89 2.16 2.24 2.31 2.30 2.49 2.52 2.50 2.41 2.36 2.30 2.30 2.52 2.96 3.60 4.05 4.16 4.31 4.69 5.03 5.13
1.45 1.55 1.64 1.86 1.88 1.91 1.83 2.01 2.05 1.97 2.11 2.17 2.12 2.09 2.02 1.96 2.11 2.29 2.32 2.14 2.13 2.02 2.23 2.20 2.20 2.22 2.17 2.43 2.57 2.52 2.15 2.15 2.02 1.95 2.02 2.21 2.54 3.08 3.61 3.97 4.41 4.88 5.23
1.29 1.34 1.48 1.54 1.63 1.69 1.67 2.10 1.99 2.02 2.11 2.01 1.90 2.25 2.14 1.86 2.03 2.17 2.39 2.62 2.47 2.32 2.39 2.31 2.26 2.24 2.40 2.52 2.59 2.49 2.14 2.17 1.98 1.80 1.69 1.67 1.76 2.01 2.43 2.79 3.14 3.51 3.93
1.35 1.39 1.46 1.68 1.82 1.87 1.92 2.17 2.09 2.06 2.21 2.03 2.01 2.20 2.13 2.04 2.01 1.98 2.34 2.70 2.87 2.66 2.52 2.43 2.19 2.09 2.20 2.31 2.38 2.03 1.86 1.99 1.91 1.77 1.63 1.54 1.51 1.59 1.75 1.90 1.99 2.08 2.25
1.52 1.64 1.71 1.86 1.99 1.95 1.95 2.13 2.08 2.17 2.27 2.16 2.14 2.19 2.13 2.07 2.16 2.09 2.23 2.49 2.74 2.92 2.72 2.26 2.10 2.01 2.01 1.82 1.91 1.70 1.73 1.91 1.77 1.63 1.56 1.53 1.51 1.50 1.48 1.51 1.57 1.60 1.64
1.65 1.72 1.82 1.94 1.97 2.03 2.14 2.23 2.05 2.14 2.26 2.42 2.30 2.28 2.34 2.45 2.41 2.31 2.40 2.49 2.64 2.91 2.84 2.34 2.24 2.25 2.10 1.88 1.82 1.72 1.67 1.76 1.78 1.86 1.69 1.57 1.46 1.38 1.35 1.34 1.36 1.43 1.48
1.93 1.89 1.95 2.00 1.87 1.92 2.14 2.20 2.17 2.18 2.22 2.25 2.44 2.68 2.60 2.63 2.58 2.41 2.52 2.48 2.55 2.85 2.75 2.50 2.51 2.53 2.45 2.23 2.08 1.88 1.67 1.67 1.79 1.99 1.74 1.58 1.48 1.41 1.37 1.36 1.33 1.32 1.33
2.17 2.26 2.25 2.07 1.99 1.99 2.06 2.16 2.26 2.24 2.26 2.33 2.48 2.56 2.58 2.77 2.64 2.52 2.46 2.44 2.54 2.70 2.82 2.60 2.53 2.71 2.59 2.34 2.21 1.94 1.72 1.81 1.61 1.71 1.68 1.60 1.57 1.50 1.44 1.36 1.33 1.31 1.27
2.20 2.35 2.31 2.23 2.18 2.07 1.96 1.93 1.98 2.06 2.22 2.37 2.42 2.34 2.44 2.68 2.72 2.70 2.51 2.49 2.64 2.75 2.78 2.67 2.57 2.68 2.70 2.62 2.48 2.26 2.14 1.96 1.76 1.62 1.68 1.59 1.56 1.51 1.42 1.32 1.27 1.26 1.28
2.15 2.30 2.35 2.38 2.35 2.17 1.91 1.95 2.08 2.07 2.23 2.25 2.19 2.09 2.10 2.35 2.56 2.62 2.36 2.37 2.53 2.56 2.55 2.57 2.55 2.62 2.67 2.83 2.70 2.43 2.20 2.05 1.80 1.61 1.62 1.49 1.45 1.36 1.38 1.38 1.31 1.22 1.15
2.56 2.59 2.50 2.43 2.34 1.98 2.08 2.12 2.11 2.10 2.21 2.22 2.18 2.09 1.98 1.98 1.98 2.10 2.19 2.30 2.46 2.45 2.45 2.61 2.76 2.82 2.80 2.84 2.85 2.65 2.36 2.11 1.90 1.69 1.75 1.72 1.63 1.56 1.40 1.28 1.32 1.23 1.16
2.94 2.94 2.79 2.60 2.43 2.34 2.26 2.03 1.98 1.85 1.89 1.95 2.03 2.04 1.78 1.61 1.72 1.61 1.79 1.95 2.06 2.14 2.18 2.38 2.55 2.65 2.80 2.95 3.01 2.75 2.55 2.32 2.05 1.86 1.86 1.70 1.59 1.57 1.45 1.41 1.49 1.32 1.25
2.85 2.86 2.77 2.62 2.49 2.38 2.26 1.94 1.88 1.69 1.72 1.73 1.79 1.83 1.80 1.69 1.65 1.73 1.73 1.67 1.64 1.71 1.87 1.89 1.99 2.27 2.54 2.76 2.91 2.80 2.71 2.39 2.07 1.84 1.79 1.64 1.48 1.46 1.39 1.43 1.56 1.45 1.32
2.58 2.47 2.39 2.37 2.34 2.36 2.33 2.01 1.83 1.63 1.71 1.70 1.69 1.71 1.74 1.66 1.82 1.74 1.68 1.70 1.70 1.71 1.77 1.83 1.82 1.97 2.23 2.40 2.53 2.61 2.58 2.42 2.12 1.88 1.81 1.79 1.59 1.53 1.47 1.34 1.34 1.43 1.33
2.49 2.42 2.27 2.26 2.23 2.20 2.25 1.90 1.72 1.56 1.65 1.68 1.73 1.72 1.72 1.62 1.66 1.57 1.50 1.62 1.62 1.65 1.74 1.74 1.72 1.70 1.78 2.10 2.44 2.30 2.34 2.38 2.14 1.83 1.59 1.66 1.64 1.68 1.56 1.23 1.11 1.13 1.13